DW8633 Weather Reports


time (UTC)temp
C
wind
direction
speed
KPH
gust
KPH
rain 1hr
cm
rain 24hr
cm
rain mn
cm
humidity
%
barometer
mb
20260504050517 12 16 8.0 17.7 0.00 0.00 0.00 46 923.5
20260504050015 12 5 11.3 24.1 0.00 0.00 0.00 46 923.5
20260504045516 12 13 12.9 24.1 0.00 0.00 0.00 45 923.4
20260504045014 13 10 8.0 19.3 0.00 0.00 0.00 45 923.3
20260504044523 13 12 12.9 22.5 0.00 0.00 0.00 44 923.5
20260504044018 13 9 16.1 24.1 0.00 0.00 0.00 45 923.5
20260504043514 13 5 16.1 24.1 0.00 0.00 0.00 44 923.3
20260504043115 13 355 16.1 22.5 0.00 0.00 0.00 44 923.2
20260504042514 13 355 16.1 22.5 0.00 0.00 0.00 44 923.0
20260504042014 13 360 14.5 24.1 0.00 0.00 0.00 43 922.9
20260504041514 14 360 16.1 24.1 0.00 0.00 0.00 43 922.8
20260504041014 14 360 16.1 29.0 0.00 0.00 0.00 42 922.8
20260504040520 14 360 19.3 29.0 0.00 0.00 0.00 42 922.8
20260504040017 15 5 19.3 25.7 0.00 0.00 0.00 41 922.6
20260504035514 15 360 17.7 35.4 0.00 0.00 0.00 41 922.6
20260504035014 15 360 20.9 35.4 0.00 0.00 0.00 40 922.4
20260504034513 15 360 24.1 35.4 0.00 0.00 0.00 40 922.4
20260504034013 15 360 22.5 40.2 0.00 0.00 0.00 39 922.3
20260504033513 16 360 25.7 40.2 0.00 0.00 0.00 38 922.2
20260504033112 16 360 30.6 54.7 0.00 0.00 0.00 37 922.1
20260504032512 17 355 33.8 54.7 0.00 0.00 0.00 37 922.0
20260504032015 18 355 43.5 54.7 0.00 0.00 0.00 35 921.8
20260504031512 17 323 25.7 40.2 0.00 0.00 0.00 36 921.1
20260504031011 17 316 20.9 30.6 0.00 0.00 0.00 36 921.0
20260504030511 17 292 20.9 30.6 0.00 0.00 0.00 36 921.0
20260504030013 18 295 22.5 35.4 0.00 0.00 0.00 35 920.9
20260504025511 18 295 27.4 35.4 0.00 0.00 0.00 35 920.9
20260504025011 18 302 22.5 33.8 0.00 0.00 0.00 35 920.8
20260504024511 18 313 24.1 33.8 0.00 0.00 0.00 35 920.9
20260504024010 18 300 25.7 37.0 0.00 0.00 0.00 35 920.8
20260504023510 18 309 22.5 35.4 0.00 0.00 0.00 35 920.7
20260504023110 18 314 22.5 37.0 0.00 0.00 0.00 34 920.7
20260504022511 19 300 22.5 37.0 0.00 0.00 0.00 34 920.6
20260504022010 19 304 25.7 37.0 0.00 0.00 0.00 34 920.7
20260504021510 19 303 24.1 40.2 0.00 0.00 0.00 34 920.8
20260504021009 20 306 27.4 40.2 0.00 0.00 0.00 33 920.7
20260504020510 20 326 29.0 43.5 0.00 0.00 0.00 33 920.6
20260504020015 20 310 32.2 41.8 0.00 0.00 0.00 33 920.8
20260504015509 20 317 30.6 41.8 0.00 0.00 0.00 32 920.6
20260504015010 21 313 32.2 41.8 0.00 0.00 0.00 31 920.6
20260504014510 21 323 29.0 38.6 0.00 0.00 0.00 28 920.5
20260504014011 21 302 27.4 46.7 0.00 0.00 0.00 27 920.5
20260504013509 21 309 35.4 48.3 0.00 0.00 0.00 26 920.6
20260504013109 21 302 29.0 48.3 0.00 0.00 0.00 28 920.5
20260504012515 21 292 27.4 38.6 0.00 0.00 0.00 28 920.5
20260504012015 21 263 27.4 38.6 0.00 0.00 0.00 27 920.4
20260504011509 21 273 20.9 37.0 0.00 0.00 0.00 28 920.5
20260504011008 21 272 27.4 37.0 0.00 0.00 0.00 27 920.5
20260504010509 21 279 27.4 38.6 0.00 0.00 0.00 26 920.6
20260504010007 22 281 30.6 46.7 0.00 0.00 0.00 26 920.7
20260504005506 22 294 30.6 48.3 0.00 0.00 0.00 25 920.7
20260504005007 22 286 35.4 48.3 0.00 0.00 0.00 25 920.7
20260504004506 22 286 35.4 46.7 0.00 0.00 0.00 24 920.9
20260504004011 22 298 33.8 46.7 0.00 0.00 0.00 23 920.8
20260504003506 22 295 32.2 48.3 0.00 0.00 0.00 23 920.8
20260504003106 23 304 41.8 57.9 0.00 0.00 0.00 21 920.8
20260504002505 23 306 40.2 56.3 0.00 0.00 0.00 22 920.8
20260504002004 23 280 32.2 49.9 0.00 0.00 0.00 23 920.8
20260504001504 23 288 33.8 51.5 0.00 0.00 0.00 23 920.8
20260504001003 23 284 35.4 51.5 0.00 0.00 0.00 24 920.9
20260504000503 23 288 30.6 49.9 0.00 0.00 0.00 23 921.1
20260504000003 23 259 32.2 49.9 0.00 0.00 0.00 24 921.1
20260503235502 23 273 32.2 46.7 0.00 0.00 0.00 25 921.0
20260503235002 23 273 32.2 48.3 0.00 0.00 0.00 25 921.1
20260503234504 23 271 37.0 48.3 0.00 0.00 0.00 26 921.2
20260503234002 23 265 29.0 46.7 0.00 0.00 0.00 25 921.3
20260503233502 23 277 37.0 48.3 0.00 0.00 0.00 26 921.2
20260503233103 23 263 37.0 54.7 0.00 0.00 0.00 26 921.4
20260503232500 23 275 41.8 54.7 0.00 0.00 0.00 26 921.4
20260503232100 23 256 32.2 51.5 0.00 0.00 0.00 26 921.6
20260503231600 23 267 27.4 43.5 0.00 0.00 0.00 25 921.6
20260503231059 23 248 29.0 45.1 0.00 0.00 0.00 26 921.9
20260503230558 23 292 33.8 45.1 0.00 0.00 0.00 25 922.0
20260503230100 23 282 29.0 45.1 0.00 0.00 0.00 26 922.1
20260503225557 23 272 29.0 48.3 0.00 0.00 0.00 26 922.2
20260503225058 23 268 40.2 48.3 0.00 0.00 0.00 25 922.2
20260503224556 23 267 30.6 43.5 0.00 0.00 0.00 24 922.5
20260503224056 22 292 32.2 45.1 0.00 0.00 0.00 24 922.6
20260503223555 22 275 30.6 45.1 0.00 0.00 0.00 25 922.8
20260503223055 22 275 37.0 46.7 0.00 0.00 0.00 22 922.8
20260503222056 22 288 27.4 51.5 0.00 0.00 0.00 23 922.9
20260503221554 23 271 35.4 51.5 0.00 0.00 0.00 22 922.9
20260503221053 23 275 30.6 46.7 0.00 0.00 0.00 23 923.0
20260503220552 23 278 35.4 46.7 0.00 0.00 0.00 23 923.1
20260503220053 23 263 29.0 40.2 0.00 0.00 0.00 24 923.1
20260503215551 22 299 32.2 41.8 0.00 0.00 0.00 23 923.2
20260503215053 22 288 29.0 41.8 0.00 0.00 0.00 26 923.4
20260503214550 22 265 25.7 41.8 0.00 0.00 0.00 25 923.6
20260503214049 22 277 32.2 51.5 0.00 0.00 0.00 24 923.5
20260503213548 22 287 29.0 51.5 0.00 0.00 0.00 26 923.7
20260503213055 23 299 32.2 48.3 0.00 0.00 0.00 28 923.7
20260503212047 22 288 32.2 48.3 0.00 0.00 0.00 26 923.8
20260503211547 22 265 30.6 46.7 0.00 0.00 0.00 28 924.0
20260503211046 23 270 29.0 45.1 0.00 0.00 0.00 28 923.9
20260503210545 22 284 33.8 49.9 0.00 0.00 0.00 29 924.1
20260503210054 22 254 35.4 49.9 0.00 0.00 0.00 27 924.2
20260503205544 22 272 29.0 41.8 0.00 0.00 0.00 27 924.3
20260503205044 22 264 30.6 46.7 0.00 0.00 0.00 25 924.4
20260503204543 22 258 27.4 46.7 0.00 0.00 0.00 27 924.3
20260503204048 22 285 35.4 46.7 0.00 0.00 0.00 25 924.5
20260503203542 23 265 32.2 46.7 0.00 0.00 0.00 27 924.5
20260503203045 23 297 27.4 48.3 0.00 0.00 0.00 29 924.4
20260503202041 23 271 30.6 66.0 0.00 0.00 0.00 29 924.5
20260503201542 23 259 33.8 66.0 0.00 0.00 0.00 29 924.6
20260503201039 23 292 33.8 46.7 0.00 0.00 0.00 29 924.8
20260503200542 23 271 30.6 46.7 0.00 0.00 0.00 29 925.0
20260503200042 23 299 30.6 43.5 0.00 0.00 0.00 30 925.1
20260503195536 23 267 32.2 45.1 0.00 0.00 0.00 30 925.1
20260503195036 22 277 33.8 45.1 0.00 0.00 0.00 31 925.3
20260503194536 23 259 25.7 51.5 0.00 0.00 0.00 30 925.3
20260503194035 22 252 32.2 51.5 0.00 0.00 0.00 28 925.5
20260503193534 23 285 32.2 43.5 0.00 0.00 0.00 31 925.5
20260503193036 23 274 27.4 41.8 0.00 0.00 0.00 30 925.7
20260503192032 22 275 30.6 46.7 0.00 0.00 0.00 31 925.8
20260503191531 22 254 33.8 46.7 0.00 0.00 0.00 30 926.0
20260503191030 22 271 33.8 48.3 0.00 0.00 0.00 31 926.1
20260503190529 23 286 32.2 48.3 0.00 0.00 0.00 30 926.3
20260503190031 22 261 25.7 43.5 0.00 0.00 0.00 31 926.5
20260503185528 22 266 33.8 46.7 0.00 0.00 0.00 30 926.6
20260503185027 22 276 25.7 46.7 0.00 0.00 0.00 31 926.7
20260503184526 22 281 29.0 45.1 0.00 0.00 0.00 30 926.9
20260503184025 22 250 25.7 45.1 0.00 0.00 0.00 29 926.9
20260503183524 22 265 24.1 46.7 0.00 0.00 0.00 30 927.1
20260503183035 22 272 25.7 41.8 0.00 0.00 0.00 31 927.2
20260503182023 22 252 33.8 41.8 0.00 0.00 0.00 30 927.2
20260503181523 22 243 24.1 45.1 0.00 0.00 0.00 34 927.2
20260503181021 21 272 32.2 45.1 0.00 0.00 0.00 32 927.4
20260503180521 21 247 29.0 41.8 0.00 0.00 0.00 32 927.4
20260503180021 21 257 32.2 46.7 0.00 0.00 0.00 33 927.7
20260503175520 21 254 32.2 46.7 0.00 0.00 0.00 33 927.7
20260503175022 21 295 27.4 43.5 0.00 0.00 0.00 34 927.9
20260503174519 21 261 25.7 43.5 0.00 0.00 0.00 34 928.0
20260503174018 21 309 32.2 43.5 0.00 0.00 0.00 34 928.0
20260503173519 21 261 22.5 40.2 0.00 0.00 0.00 33 928.2
20260503173017 21 267 25.7 43.5 0.00 0.00 0.00 33 928.3
20260503172014 21 252 22.5 43.5 0.00 0.00 0.00 34 928.4
20260503171514 21 240 22.5 40.2 0.00 0.00 0.00 33 928.5
20260503171012 21 274 27.4 40.2 0.00 0.00 0.00 33 928.6
20260503170512 20 282 22.5 43.5 0.00 0.00 0.00 35 928.7
20260503150556 18 259 25.7 33.8 0.00 0.00 0.00 36 930.2
20260503131036 8 360 1.6 9.7 0.00 0.00 0.00 59 931.0
20260503130534 7 360 3.2 8.0 0.00 0.00 0.00 64 931.1
20260503110521 0 360 1.6 4.8 0.00 0.00 0.00 72 931.9
20260503090513 0 360 4.8 8.0 0.00 0.00 0.00 76 932.7
20260503081510 2 360 1.6 4.8 0.00 0.00 0.00 69 932.8
20260503081005 1 360 3.2 4.8 0.00 0.00 0.00 70 932.8
20260503080505 1 360 1.6 8.0 0.00 0.00 0.00 71 932.8
20260503072100 2 360 0.0 6.4 0.00 0.00 0.00 66 933.1
20260503071600 2 360 3.2 4.8 0.00 0.00 0.00 66 933.1
20260503071058 2 360 3.2 6.4 0.00 0.00 0.00 67 933.2
20260503070602 2 360 0.0 3.2 0.00 0.00 0.00 67 933.1
20260503070106 2 360 1.6 3.2 0.00 0.00 0.00 67 933.2